Location: ???
(60.6398°N, 46.9067°E)
Time: 17:10:06
(UTC+00:00)

NOSS 2-3 (D) - Pass Details

Date: 08 December 2019
Orbit: 586 x 1626 km, 63.3° (Epoch: 19 January)

Event Time Altitude Azimuth Distance (km) Brightness Sun altitude
Rises 15:53:04 0° 293° (WNW) 3,272 8.3 -28.1°
Reaches altitude 10° 15:55:14 10° 294° (WNW) 2,457 7.5 -28.3°
Maximum altitude 16:00:59 89° 25° (NNE) 1,011 4.4 -29.0°
Enters shadow 16:01:20 81° 108° (ESE) 1,032 4.4 -29.1°
